Weather History for Gilmer, TX

Change the Weather History Date:

Thursday, August 8, 2013

  Actual Average (KGGG) Record (KGGG)
Temperature  
Mean Temperature 89 °F 84 °F  
Max Temperature 100 °F 95 °F 108 °F (1935)
Min Temperature 78 °F 73 °F 62 °F (2004)
Degree Days  
Heating Degree Days 0 0  
Month to date heating degree days 0  
Since 1 June heating degree days 0  
Since 1 July heating degree days 0  
Cooling Degree Days 24 18  
Month to date cooling degree days 151  
Year to date cooling degree days 1541  
Since 1 June cooling degree days 1162  
Growing Degree Days 39 (Base 50)    
Moisture  
Dew Point 70 °F    
Average Humidity 58    
Maximum Humidity 83    
Minimum Humidity 29    
Precipitation  
Precipitation 0.00 in 0.10 in 1.43 in (1984)
Month to date precipitation 0.69  
Year to date precipitation 28.32  
Snow  
Snow 0.00 in - - ()
Month to date snowfall  
Since 1 June snowfall  
Since 1 July snowfall  
Snow Depth -    
Sea Level Pressure  
Sea Level Pressure 29.88 in    
Wind  
Wind Speed 6 mph (South)    
Max Wind Speed 12 mph    
Max Gust Speed -    
Visibility 9 miles    
Events      
T = Trace of Precipitation, MM = Missing Value Source: NWS Daily Summary

Daily Weather History Graph

Daily Weather History Graph

Search for Another Location

Airport:

Trip Planner

Search our weather history database for the weather conditions in past years. The results will help you decide how hot, cold, wet, or windy it might be!

Date:

Astronomy

Aug. 08, 2013 Rise Set
Actual Time 6:38 AM CDT 8:11 PM CDT
Civil Twilight 6:12 AM CDT 8:37 PM CDT
Nautical Twilight 5:40 AM CDT 9:09 PM CDT
Astronomical Twilight 5:07 AM CDT 9:42 PM CDT
Moon 8:17 AM CDT (8/8) 9:01 PM CDT (8/8)
Length of Visible Light 14h 25m
Length of Day
13h 32m
Waxing Crescent, 3% of the Moon is Illuminated
Aug 8
Waxing Crescent
Aug 14
First Quarter
Aug 20
Full
Aug 28
Last Quarter
Sep 5
New

Hourly Weather History & Observations

Time (CDT) Temp. Heat Index Dew Point Humidity Pressure Visibility Wind Dir Wind Speed Gust Speed Precip Events Conditions
12:15 AM 87.8 °F 92.6 °F 69.8 °F 55% 29.89 in 10.0 mi South 4.6 mph - N/A   Clear
12:35 AM 87.8 °F 92.6 °F 69.8 °F 55% 29.89 in 10.0 mi South 10.4 mph - N/A   Clear
12:55 AM 87.8 °F 92.6 °F 69.8 °F 55% 29.89 in 10.0 mi South 9.2 mph - N/A   Clear
1:15 AM 86.0 °F 91.8 °F 71.6 °F 62% 29.89 in 10.0 mi South 9.2 mph - N/A   Clear
1:35 AM 86.0 °F 91.8 °F 71.6 °F 62% 29.89 in 9.0 mi SSW 10.4 mph - N/A   Clear
1:55 AM 84.2 °F 90.9 °F 73.4 °F 70% 29.89 in 9.0 mi South 9.2 mph - N/A   Clear
2:15 AM 84.2 °F 90.9 °F 73.4 °F 70% 29.88 in 9.0 mi South 6.9 mph - N/A   Clear
2:35 AM 84.2 °F 90.9 °F 73.4 °F 70% 29.88 in 9.0 mi South 6.9 mph - N/A   Clear
2:55 AM 84.2 °F 90.9 °F 73.4 °F 70% 29.88 in 9.0 mi South 9.2 mph - N/A   Clear
3:15 AM 82.4 °F 88.2 °F 73.4 °F 74% 29.87 in 8.0 mi South 5.8 mph - N/A   Clear
3:35 AM 82.4 °F 88.2 °F 73.4 °F 74% 29.87 in 9.0 mi South 5.8 mph - N/A   Clear
3:55 AM 82.4 °F 88.2 °F 73.4 °F 74% 29.87 in 9.0 mi SSW 6.9 mph - N/A   Clear
4:15 AM 82.4 °F 88.2 °F 73.4 °F 74% 29.87 in 9.0 mi SSW 5.8 mph - N/A   Clear
4:35 AM 80.6 °F 85.4 °F 73.4 °F 79% 29.87 in 8.0 mi South 6.9 mph - N/A   Clear
4:55 AM 80.6 °F 85.4 °F 73.4 °F 79% 29.87 in 8.0 mi South 8.1 mph - N/A   Clear
5:15 AM 80.6 °F 85.4 °F 73.4 °F 79% 29.88 in 8.0 mi South 8.1 mph - N/A   Clear
5:35 AM 80.6 °F 85.4 °F 73.4 °F 79% 29.88 in 9.0 mi SSW 6.9 mph - N/A   Clear
5:55 AM 78.8 °F - 73.4 °F 83% 29.88 in 9.0 mi SSW 6.9 mph - N/A   Clear
6:15 AM 78.8 °F - 73.4 °F 83% 29.89 in 8.0 mi South 6.9 mph - N/A   Clear
6:35 AM 78.8 °F - 71.6 °F 78% 29.89 in 8.0 mi South 6.9 mph - N/A   Clear
6:55 AM 78.8 °F - 71.6 °F 78% 29.90 in 7.0 mi South 4.6 mph - N/A   Clear
7:15 AM 78.8 °F - 71.6 °F 78% 29.91 in 7.0 mi South 6.9 mph - N/A   Clear
7:35 AM 78.8 °F - 71.6 °F 78% 29.91 in 7.0 mi South 6.9 mph - N/A   Clear
7:55 AM 78.8 °F - 73.4 °F 83% 29.91 in 7.0 mi South 8.1 mph - N/A   Clear
8:15 AM 78.8 °F - 73.4 °F 83% 29.92 in 7.0 mi SSW 9.2 mph - N/A   Clear
8:35 AM 80.6 °F 85.4 °F 73.4 °F 79% 29.92 in 6.0 mi South 10.4 mph - N/A   Haze
8:55 AM 80.6 °F 85.4 °F 73.4 °F 79% 29.94 in 7.0 mi SSW 5.8 mph - N/A   Clear
9:15 AM 82.4 °F 88.2 °F 73.4 °F 74% 29.94 in 7.0 mi SSW 9.2 mph - N/A   Clear
9:35 AM 82.4 °F 88.2 °F 73.4 °F 74% 29.94 in 7.0 mi South 11.5 mph - N/A   Clear
9:55 AM 84.2 °F 90.9 °F 73.4 °F 70% 29.93 in 6.0 mi South 8.1 mph - N/A   Haze
10:15 AM 84.2 °F 90.9 °F 73.4 °F 70% 29.93 in 7.0 mi South 10.4 mph - N/A   Clear
10:35 AM 84.2 °F 90.9 °F 73.4 °F 70% 29.93 in 8.0 mi SSE 6.9 mph - N/A   Clear
10:55 AM 86.0 °F 93.4 °F 73.4 °F 66% 29.93 in 7.0 mi South 8.1 mph - N/A   Clear
11:15 AM 87.8 °F 95.6 °F 73.4 °F 62% 29.93 in 7.0 mi SSW 6.9 mph - N/A   Clear
11:35 AM 89.6 °F 98.2 °F 73.4 °F 59% 29.93 in 8.0 mi SW 8.1 mph - N/A   Clear
11:55 AM 89.6 °F 98.2 °F 73.4 °F 59% 29.93 in 7.0 mi WSW 3.5 mph - N/A   Clear
12:15 PM 89.6 °F 96.2 °F 71.6 °F 55% 29.93 in 8.0 mi WSW 5.8 mph - N/A   Clear
12:35 PM 91.4 °F 98.4 °F 71.6 °F 52% 29.92 in 9.0 mi SSE 4.6 mph - N/A   Clear
12:55 PM 93.2 °F 100.5 °F 71.6 °F 49% 29.91 in 8.0 mi SSE 5.8 mph - N/A   Clear
1:15 PM 93.2 °F 100.5 °F 71.6 °F 49% 29.90 in 8.0 mi WNW 4.6 mph - N/A   Clear
1:35 PM 95.0 °F 101.3 °F 69.8 °F 44% 29.90 in 8.0 mi Calm Calm - N/A   Clear
1:55 PM 96.8 °F 105.1 °F 71.6 °F 44% 29.89 in 8.0 mi SW 5.8 mph - N/A   Clear
2:15 PM 96.8 °F 103.1 °F 69.8 °F 41% 29.89 in 8.0 mi NW 5.8 mph - N/A   Clear
2:35 PM 96.8 °F 103.1 °F 69.8 °F 41% 29.88 in 8.0 mi SSW 9.2 mph - N/A   Clear
2:55 PM 98.6 °F 104.1 °F 68.0 °F 37% 29.88 in 9.0 mi Calm Calm - N/A   Clear
3:15 PM 98.6 °F 105.5 °F 69.8 °F 39% 29.88 in 8.0 mi Calm Calm - N/A   Clear
3:35 PM 98.6 °F 105.5 °F 69.8 °F 39% 29.87 in 9.0 mi South 9.2 mph - N/A   Clear
3:55 PM 98.6 °F 104.1 °F 68.0 °F 37% 29.86 in 9.0 mi South 4.6 mph - N/A   Clear
4:15 PM 100.4 °F 106.3 °F 68.0 °F 35% 29.86 in 10.0 mi West 6.9 mph - N/A   Clear
4:35 PM 100.4 °F 104.9 °F 66.2 °F 33% 29.85 in 9.0 mi South 6.9 mph - N/A   Clear
4:55 PM 100.4 °F 104.9 °F 66.2 °F 33% 29.85 in 10.0 mi SSW 8.1 mph - N/A   Clear
5:15 PM 100.4 °F 103.6 °F 64.4 °F 31% 29.85 in 10.0 mi WSW 4.6 mph - N/A   Clear
5:35 PM 100.4 °F 102.4 °F 62.6 °F 29% 29.84 in 10.0 mi Calm Calm - N/A   Clear
5:55 PM 100.4 °F 104.9 °F 66.2 °F 33% 29.84 in 9.0 mi SSW 4.6 mph - N/A   Clear
6:15 PM 98.6 °F 104.1 °F 68.0 °F 37% 29.83 in 9.0 mi South 8.1 mph - N/A   Clear
6:35 PM 98.6 °F 104.1 °F 68.0 °F 37% 29.83 in 9.0 mi SSW 8.1 mph - N/A   Clear
6:55 PM 98.6 °F 102.8 °F 66.2 °F 35% 29.83 in 10.0 mi SSE 8.1 mph - N/A   Clear
7:15 PM 96.8 °F 99.0 °F 64.4 °F 34% 29.82 in 9.0 mi SSE 5.8 mph - N/A   Clear
7:35 PM 96.8 °F 99.0 °F 64.4 °F 34% 29.82 in 10.0 mi SSE 4.6 mph - N/A   Clear
7:55 PM 95.0 °F 96.0 °F 62.6 °F 34% 29.83 in 10.0 mi South 3.5 mph - N/A   Clear
8:15 PM 93.2 °F 94.9 °F 64.4 °F 38% 29.83 in 9.0 mi Calm Calm - N/A   Clear
8:35 PM 91.4 °F 93.2 °F 64.4 °F 41% 29.84 in 10.0 mi Calm Calm - N/A   Clear
8:55 PM 91.4 °F 94.0 °F 66.2 °F 43% 29.85 in 10.0 mi Calm Calm - N/A   Clear
9:15 PM 89.6 °F 93.4 °F 68.0 °F 49% 29.86 in 10.0 mi Calm Calm - N/A   Clear
9:35 PM 87.8 °F 91.4 °F 68.0 °F 52% 29.87 in 10.0 mi Calm Calm - N/A   Clear
9:55 PM 86.0 °F 89.4 °F 68.0 °F 55% 29.88 in 9.0 mi Calm Calm - N/A   Clear
10:15 PM 84.2 °F 88.4 °F 69.8 °F 62% 29.88 in 10.0 mi Calm Calm - N/A   Clear
10:35 PM 84.2 °F 88.4 °F 69.8 °F 62% 29.89 in 10.0 mi Calm Calm - N/A   Clear
10:55 PM 84.2 °F 88.4 °F 69.8 °F 62% 29.89 in 10.0 mi Calm Calm - N/A   Clear
11:15 PM 82.4 °F 87.2 °F 71.6 °F 70% 29.90 in 10.0 mi Calm Calm - N/A   Clear
11:35 PM 87.8 °F 92.6 °F 69.8 °F 55% 29.90 in 10.0 mi SSE 5.8 mph - N/A   Clear
11:55 PM 87.8 °F 92.6 °F 69.8 °F 55% 29.91 in 10.0 mi South 6.9 mph - N/A   Clear